Location: Lanoux
(43.1180°N, 1.4255°E)
Time: 09:06:02
(UTC+00:00)

ISS - Visible Passes

Search period start: 09 February 2026 00:00
Search period end: 19 February 2026 00:00
Orbit: 414 x 429 km, 51.6° (Epoch: 8 February)

Date Brightness Start Highest point End Pass type
(mag) Time Alt. Az. Time Alt. Az. Time Alt. Az.
11 Feb -1.3 06:04:36 10° SSW 06:07:21 24° SE 06:10:06 10° E visible
12 Feb -0.8 05:18:33 10° SSE 05:20:30 15° SE 05:22:27 10° E visible
13 Feb -3.5 06:06:36 10° SW 06:09:56 69° SE 06:13:15 10° ENE visible
14 Feb -2.6 05:20:59 20° SSW 05:22:56 41° SE 05:26:07 10° ENE visible
15 Feb -1.6 04:36:22 24° SE 04:36:22 24° SE 04:38:47 10° E visible
15 Feb -3.4 06:09:25 10° WSW 06:12:39 47° NNW 06:15:55 10° NE visible
16 Feb -3.8 05:24:33 42° WSW 05:25:32 72° NNW 05:28:52 10° NE visible
17 Feb -2.3 04:39:34 37° ENE 04:39:34 37° ENE 04:41:46 10° ENE visible
17 Feb -2.4 06:12:37 10° WNW 06:15:30 26° NNW 06:18:23 10° NE visible
18 Feb -0.2 03:54:29 10° ENE 03:54:29 10° ENE 03:54:33 10° ENE visible
18 Feb -2.8 05:27:28 29° NW 05:28:15 33° NNW 05:31:20 10° NE visible
